Location: ??
(35.5392°N, 139.7474°E)
Time: 12:15:19
(UTC+00:00)

Daily predictions for brighter satellites

Satellite Brightness Start Highest point End
(mag) Time Altitude Azimuth Time Altitude Azimuth Time Altitude Azimuth
Milstar 3 Cent rocket 4.4 17:44:58 21° SE 17:44:58 21° SE 17:47:16 10° ESE
Cosmos 2237 Rocket 4.2 17:50:44 22° NNE 17:50:44 22° NNE 17:52:42 10° NNE
ATLAS 3B R/B 3.5 18:09:26 31° N 18:12:11 47° NE 18:18:47 10° SE
Milstar 3 4.0 18:15:40 31° S 18:16:17 32° SSE 18:22:09 10° ESE
CENTAUR R/B 3.5 18:14:46 24° NNW 18:20:07 65° NE 18:28:46 10° SE
IDEFIX/ARIANE 42P 3.8 18:16:44 10° NNE 18:19:38 34° NNE 18:19:38 34° NNE
Cosmos 2074 Rocket 3.8 18:31:54 88° W 18:31:54 88° W 18:38:09 10° N
ATLAS 2AS CENTAUR R/B 3.8 18:40:53 33° NW 18:40:53 33° NW 18:47:24 10° NNE
SL-16 R/B 2.3 18:41:21 47° S 18:42:58 73° ESE 18:48:38 10° NNE
Cosmos 489 Rocket 4.3 18:43:45 48° NNW 18:45:36 77° WSW 18:51:53 10° S
COSMOS 2441 4.4 18:43:58 10° NNE 18:48:52 79° ESE 18:50:18 46° S
SL-8 R/B 3.8 18:50:15 68° SSE 18:50:24 69° SE 18:55:11 10° ENE
Cosmos 1140 Rocket 4.3 18:57:04 36° NNW 18:57:04 36° NNW 19:00:27 10° N
Cosmos 2278 Rocket 2.7 18:58:12 40° SSW 18:58:12 40° SSW 19:02:08 10° S
Cosmos 1954 Rocket 3.9 19:01:02 61° WNW 19:01:03 61° WNW 19:06:13 10° N
Cosmos 1674 4.5 19:00:30 10° SSE 19:03:48 32° E 19:07:08 10° NNE
MSX 3.7 18:59:40 10° N 19:05:21 67° WNW 19:09:48 17° SSW
Cosmos 1953 2.9 19:08:44 43° S 19:08:44 43° S 19:11:28 10° S
Centaur D AC-28 3.0 19:06:23 28° SSW 19:07:42 35° SSE 19:14:48 10° E
SJ-6F 4.3 19:03:51 10° N 19:08:00 87° W 19:09:35 37° SSW
Meteor 1-31 Rocket 2.9 19:06:55 10° NNE 19:10:42 70° E 19:14:28 10° S
USA 267 4.2 19:06:04 10° NNE 19:11:31 29° NNW 19:12:57 27° NW
PAYLOAD A 3.8 19:08:01 10° N 19:12:55 68° WNW 19:18:01 10° SSW
ADEOS 4.5 19:09:31 10° N 19:12:59 31° NW 19:12:59 31° NW
H-2A R/B 3.1 19:13:12 10° N 19:16:26 39° NW 19:16:26 39° NW
Cosmos 1892 Rocket 3.4 19:14:11 10° SSW 19:18:37 74° W 19:23:01 10° N
CZ-2C R/B 2.4 19:16:24 10° N 19:21:33 71° WNW 19:26:35 10° SSW
In-Cosmos 22 4.0 19:18:52 10° SSW 19:24:10 71° W 19:29:39 10° N
CZ-4B R/B 2.5 19:20:59 10° N 19:24:51 79° WNW 19:28:32 10° SSW
Cosmos 1484 Rocket 4.0 19:22:17 10° NNE 19:25:58 43° E 19:29:41 10° S
Cosmos 962 Rocket 4.4 19:21:51 10° S 19:28:08 84° W 19:34:31 10° N
Cosmos 2237 Rocket 3.9 19:32:36 16° NW 19:32:36 16° NW 19:35:06 10° NNW
Cosmos 1606 Rocket 3.7 19:29:33 10° NNW 19:33:41 45° W 19:37:48 10° SSW
Cosmos 2154 Rocket 4.3 19:34:51 10° SSW 19:40:36 40° WNW 19:46:25 10° N
USA 234 3.4 19:35:49 10° SE 19:42:21 78° NE 19:48:54 10° NW
GP-B 3.0 19:38:27 10° S 19:42:51 71° W 19:47:18 10° N
RESURS DK-1 4.1 19:43:50 17° NW 19:43:50 17° NW 19:45:50 10° NNW
Cosmos 1741 Rocket 4.0 19:40:17 10° SSW 19:45:32 63° WNW 19:50:51 10° N
Meteor 2-5 Rocket 3.7 19:40:34 10° SSW 19:46:21 76° W 19:52:16 10° N
Cosmos 2369 Rocket 3.9 19:44:33 10° N 19:49:35 33° ENE 19:54:36 10° SE
Meteor PRIRODA 3.7 19:46:03 10° N 19:49:43 55° WNW 19:53:20 10° SSW
Cosmos 1763 Rocket 4.5 19:46:03 10° N 19:51:01 48° ENE 19:55:54 10° SE
CZ-4B DEB 4.4 19:45:49 10° NNE 19:51:17 77° ESE 19:56:44 10° S
Cosmos 1626 Rocket 3.5 19:47:52 10° S 19:52:10 84° E 19:56:30 10° N
SL-14 R/B 4.2 19:52:46 10° S 19:56:35 51° E 20:00:22 10° NNE
Helios 1A Rocket 3.4 19:53:18 10° NNE 19:57:27 66° ESE 20:01:33 10° S
CZ-3C R/B 4.0 19:56:39 10° S 19:57:33 10° SSE 19:58:36 10° SSE
KORONAS-FOTON 3.9 19:54:39 10° SSW 19:58:17 48° W 20:01:58 10° N
Cosmos 2228 3.9 19:55:26 10° NNW 19:58:57 26° W 20:02:28 10° SW
IDEFIX/ARIANE 42P 4.4 19:58:58 10° NW 20:00:26 12° WNW 20:00:26 12° WNW
ALOS 2.8 19:56:20 10° NNE 20:00:59 65° E 20:05:35 10° S
COSMO-SKYMED 1 2.6 19:57:52 10° SSE 20:02:12 85° ENE 20:06:33 10° N
ATLAS 3B R/B 3.4 19:56:51 10° NW 20:02:35 30° WSW 20:08:27 10° S
CZ-4B R/B 3.7 19:58:29 10° NNE 20:03:44 63° ESE 20:08:58 10° S
PAYLOAD B 4.2 20:03:22 10° NNE 20:08:56 84° WNW 20:14:26 10° SSW
Cosmos 1943 Rocket 2.9 20:03:45 10° NNW 20:09:22 58° ENE 20:14:55 10° SE
Cosmos 1437 Rocket 4.0 20:07:25 10° WSW 20:10:11 19° WNW 20:12:59 10° NNW
CENTAUR R/B 4.0 20:03:35 10° NW 20:10:31 29° WSW 20:17:39 10° SSW
METEOR-M 4.2 20:05:22 10° NNE 20:10:44 83° ESE 20:16:04 10° SSW
Cosmos 2341 Rocket 4.4 20:05:51 10° SSW 20:11:37 39° WNW 20:17:25 10° N
NOAA 6 4.3 20:08:08 10° NNE 20:13:19 76° ESE 20:18:27 10° S
Cosmos 1726 3.1 20:10:17 10° NNW 20:13:22 26° W 20:16:27 10° SSW
ASTEX 1 3.9 20:10:42 10° SSE 20:15:30 63° E 20:20:20 10° N
FENGYUN 3A 3.8 20:10:25 10° NNE 20:15:53 86° ESE 20:21:19 10° SSW
ISS -2.4 20:15:55 10° SSW 20:19:07 42° SE 20:22:19 10° ENE
Milstar 3 Cent rocket 3.0 20:14:50 10° WSW 20:20:02 38° S 20:24:19 10° ESE
SJ-12 4.1 20:17:14 10° N 20:21:11 48° WNW 20:25:08 10° SSW
Cosmos 1908 3.9 20:21:19 10° NNW 20:24:42 31° W 20:28:05 10° SSW
Cosmos 1603 3.9 20:21:37 10° SW 20:27:03 52° WNW 20:32:35 10° N
Cosmos 1602 Rocket 3.8 20:23:19 10° SSW 20:27:28 45° W 20:31:37 10° N
SL-16 R/B 3.8 20:24:30 10° W 20:27:40 15° NW 20:30:50 10° NNW
SL-8 Rocket 4.3 20:21:57 10° SSW 20:27:44 41° WNW 20:33:32 10° N
Cosmos 1758 Rocket 4.1 20:24:43 10° S 20:28:59 66° E 20:33:18 10° NNE
